YN9ZMM-13 Weather Reports


time (UTC)temp
C
wind
direction
speed
KPH
gust
KPH
rain 1hr
cm
rain 24hr
cm
rain mn
cm
humidity
%
barometer
mb
20260507143502 23 52 8.0 12.9 0.00 0.00 0.00 61 1014.0
20260507142502 27 43 4.8 8.0 0.00 0.00 0.00 80 1014.0
20260507141502 26 43 4.8 8.0 0.00 0.00 0.00 80 1014.0
20260507140501 26 43 4.8 8.0 0.00 0.00 0.00 80 1014.0
20260507135501 25 43 4.8 8.0 0.00 0.00 0.00 80 1014.0
20260507134500 25 43 4.8 8.0 0.00 0.00 0.00 80 1014.0
20260507133500 24 43 4.8 8.0 0.00 0.00 0.00 80 1014.0
20260507132500 23 43 4.8 8.0 0.00 0.00 0.00 80 1014.0
20260507131459 23 43 4.8 8.0 0.00 0.00 0.00 80 1014.0
20260507130459 22 43 4.8 8.0 0.00 0.00 0.00 80 1014.0
20260507125459 22 43 4.8 8.0 0.00 0.00 0.00 80 1014.0
20260507124458 21 43 4.8 8.0 0.00 0.00 0.00 80 1014.0
20260507123458 21 43 4.8 8.0 0.00 0.00 0.00 80 1014.0
20260507122457 20 43 4.8 8.0 0.00 0.00 0.00 80 1014.0
20260507121457 20 43 4.8 8.0 0.00 0.00 0.00 80 1014.0
20260507120456 19 43 4.8 8.0 0.00 0.00 0.00 80 1014.0
20260507115456 18 43 4.8 8.0 0.00 0.00 0.00 80 1014.0
20260507114456 18 43 4.8 9.7 0.00 0.00 0.00 80 1014.0
20260507113456 21 46 4.8 8.0 0.00 0.00 0.00 79 1014.0
20260507112455 21 46 4.8 8.0 0.00 0.00 0.00 79 1013.0
20260507111455 20 46 4.8 8.0 0.00 0.00 0.00 79 1013.0
20260507110454 20 46 4.8 8.0 0.00 0.00 0.00 79 1013.0
20260507105454 19 46 4.8 8.0 0.00 0.00 0.00 79 1013.0
20260507104454 18 46 4.8 8.0 0.00 0.00 0.00 79 1013.0
20260507103453 18 46 4.8 8.0 0.00 0.00 0.00 79 1013.0
20260507102454 22 51 4.8 8.0 0.00 0.00 0.00 76 1013.0
20260507101453 22 51 4.8 8.0 0.00 0.00 0.00 76 1013.0
20260507100452 22 51 4.8 8.0 0.00 0.00 0.00 76 1013.0
20260507095452 21 51 4.8 8.0 0.00 0.00 0.00 76 1013.0
20260507094452 21 51 4.8 8.0 0.00 0.00 0.00 76 1013.0
20260507093452 20 51 4.8 9.7 0.00 0.00 0.00 76 1013.0
20260507092451 20 51 4.8 9.7 0.00 0.00 0.00 76 1013.0
20260507091451 23 48 4.8 8.0 0.00 0.00 0.00 78 1013.0
20260507090451 23 48 4.8 8.0 0.00 0.00 0.00 78 1013.0
20260507085450 22 48 4.8 8.0 0.00 0.00 0.00 78 1013.0
20260507084450 22 48 4.8 8.0 0.00 0.00 0.00 78 1013.0
20260507083449 21 48 4.8 8.0 0.00 0.00 0.00 78 1013.0
20260507082449 21 48 4.8 8.0 0.00 0.00 0.00 78 1013.0
20260507081449 20 48 4.8 8.0 0.00 0.00 0.00 78 1013.0
20260507080449 20 48 4.8 9.7 0.00 0.00 0.00 78 1013.0
20260507075448 23 44 4.8 6.4 0.00 0.00 0.00 80 1013.0
20260507074448 22 44 4.8 6.4 0.00 0.00 0.00 80 1013.0
20260507073447 22 44 4.8 6.4 0.00 0.00 0.00 80 1013.0
20260507072447 21 44 4.8 6.4 0.00 0.00 0.00 80 1014.0
20260507071447 21 44 4.8 6.4 0.00 0.00 0.00 80 1014.0
20260507070446 20 44 4.8 6.4 0.00 0.00 0.00 80 1014.0
20260507065446 20 44 4.8 6.4 0.00 0.00 0.00 80 1014.0
20260507064446 19 44 4.8 6.4 0.00 0.00 0.00 80 1014.0
20260507063445 18 44 4.8 6.4 0.00 0.00 0.00 80 1014.0
20260507062445 18 44 4.8 6.4 0.00 0.00 0.00 80 1015.0
20260507061444 21 44 4.8 6.4 0.00 0.00 0.00 82 1015.0
20260507060444 21 44 4.8 6.4 0.00 0.00 0.00 82 1015.0
20260507055444 20 44 4.8 6.4 0.00 0.00 0.00 82 1015.0
20260507054443 20 44 4.8 6.4 0.00 0.00 0.00 82 1015.0
20260507053443 22 45 4.8 4.8 0.00 0.00 0.00 79 1015.0
20260507052442 21 45 4.8 4.8 0.00 0.00 0.00 79 1015.0
20260507051442 21 45 4.8 4.8 0.00 0.00 0.00 79 1015.0
20260507050441 20 45 4.8 4.8 0.00 0.00 0.00 79 1015.0
20260507045441 20 45 4.8 4.8 0.00 0.00 0.00 79 1015.0
20260507044441 19 45 4.8 4.8 0.00 0.00 0.00 79 1015.0
20260507043441 18 45 4.8 4.8 0.00 0.00 0.00 79 1015.0
20260507042440 22 52 4.8 4.8 0.00 0.00 0.00 75 1015.0
20260507041440 21 52 4.8 4.8 0.00 0.00 0.00 75 1015.0
20260507040439 21 52 4.8 4.8 0.00 0.00 0.00 75 1015.0
20260507035439 20 52 4.8 4.8 0.00 0.00 0.00 75 1015.0
20260507034438 20 52 4.8 4.8 0.00 0.00 0.00 75 1015.0
20260507033438 22 55 4.8 6.4 0.00 0.00 0.00 72 1014.0
20260507032437 22 55 4.8 6.4 0.00 0.00 0.00 72 1014.0
20260507031437 22 55 4.8 6.4 0.00 0.00 0.00 72 1014.0
20260507030436 21 55 4.8 6.4 0.00 0.00 0.00 72 1014.0
20260507025436 21 55 4.8 6.4 0.00 0.00 0.00 72 1014.0
20260507024436 21 55 4.8 6.4 0.00 0.00 0.00 72 1014.0
20260507023435 23 63 4.8 6.4 0.00 0.00 0.00 67 1014.0
20260507022435 23 63 4.8 6.4 0.00 0.00 0.00 67 1013.0
20260507021434 22 63 4.8 6.4 0.00 0.00 0.00 67 1013.0
20260507020434 23 63 4.8 6.4 0.00 0.00 0.00 68 1013.0
20260507015434 23 63 4.8 6.4 0.00 0.00 0.00 68 1013.0
20260507014434 23 63 4.8 6.4 0.00 0.00 0.00 68 1013.0
20260507013433 25 73 6.4 6.4 0.00 0.00 0.00 63 1013.0
20260507012433 24 73 6.4 6.4 0.00 0.00 0.00 63 1012.0
20260507011433 24 73 6.4 6.4 0.00 0.00 0.00 63 1012.0
20260507010432 23 73 6.4 6.4 0.00 0.00 0.00 63 1012.0
20260507005432 23 73 6.4 6.4 0.00 0.00 0.00 63 1012.0
20260507004431 22 73 6.4 6.4 0.00 0.00 0.00 63 1012.0
20260507003430 25 79 6.4 16.1 0.00 0.00 0.00 56 1011.0
20260507002430 25 79 6.4 16.1 0.00 0.00 0.00 56 1011.0
20260507001430 24 79 6.4 16.1 0.00 0.00 0.00 56 1011.0
20260507000430 27 79 6.4 16.1 0.00 0.00 0.00 57 1011.0
20260506235429 26 79 6.4 16.1 0.00 0.00 0.00 57 1011.0
20260506234429 26 79 6.4 16.1 0.00 0.00 0.00 57 1011.0
20260506233428 28 89 11.3 17.7 0.00 0.00 0.00 53 1011.0
20260506232428 27 89 11.3 17.7 0.00 0.00 0.00 53 1010.0
20260506231428 27 89 11.3 17.7 0.00 0.00 0.00 53 1010.0
20260506230427 28 89 11.3 17.7 0.00 0.00 0.00 53 1010.0
20260506225427 28 89 11.3 17.7 0.00 0.00 0.00 53 1010.0
20260506224427 28 92 16.1 20.9 0.00 0.00 0.00 51 1010.0
20260506223426 28 92 16.1 20.9 0.00 0.00 0.00 51 1010.0
20260506222426 28 92 16.1 20.9 0.00 0.00 0.00 51 1010.0
20260506221426 28 92 16.1 20.9 0.00 0.00 0.00 51 1010.0
20260506220425 27 92 16.1 20.9 0.00 0.00 0.00 51 1010.0
20260506215424 27 92 16.1 20.9 0.00 0.00 0.00 51 1010.0
20260506214424 26 92 16.1 20.9 0.00 0.00 0.00 51 1010.0
20260506213424 30 82 16.1 17.7 0.00 0.00 0.00 43 1010.0
20260506212423 30 82 16.1 17.7 0.00 0.00 0.00 43 1010.0
20260506211423 29 82 16.1 17.7 0.00 0.00 0.00 43 1010.0
20260506210423 28 82 16.1 19.3 0.00 0.00 0.00 43 1010.0
20260506205422 30 82 16.1 17.7 0.00 0.00 0.00 44 1010.0
20260506204422 30 82 16.1 17.7 0.00 0.00 0.00 44 1010.0
20260506203422 29 82 16.1 19.3 0.00 0.00 0.00 44 1010.0
20260506202422 33 82 16.1 12.9 0.00 0.00 0.00 38 1010.0
20260506201421 33 82 16.1 12.9 0.00 0.00 0.00 38 1010.0
20260506200421 32 82 16.1 12.9 0.00 0.00 0.00 38 1010.0
20260506195421 32 82 16.1 14.5 0.00 0.00 0.00 38 1010.0
20260506194420 32 82 16.1 14.5 0.00 0.00 0.00 38 1010.0
20260506193420 34 83 12.9 12.9 0.00 0.00 0.00 45 1010.0
20260506192419 33 83 12.9 14.5 0.00 0.00 0.00 45 1011.0
20260506191419 35 83 12.9 12.9 0.00 0.00 0.00 50 1011.0
20260506190419 34 83 12.9 14.5 0.00 0.00 0.00 50 1011.0
20260506185418 35 64 11.3 12.9 0.00 0.00 0.00 53 1011.0
20260506184418 34 64 11.3 12.9 0.00 0.00 0.00 53 1011.0
20260506183418 33 64 11.3 12.9 0.00 0.00 0.00 53 1011.0
20260506182417 33 64 11.3 12.9 0.00 0.00 0.00 53 1012.0
20260506181417 32 64 11.3 12.9 0.00 0.00 0.00 53 1012.0
20260506180417 32 64 11.3 12.9 0.00 0.00 0.00 53 1012.0
20260506175416 31 64 11.3 12.9 0.00 0.00 0.00 53 1012.0
20260506174416 31 64 11.3 12.9 0.00 0.00 0.00 53 1012.0
20260506173416 30 64 11.3 12.9 0.00 0.00 0.00 53 1012.0
20260506172416 30 64 11.3 12.9 0.00 0.00 0.00 53 1013.0
20260506171415 30 64 11.3 12.9 0.00 0.00 0.00 53 1013.0
20260506170415 29 64 11.3 12.9 0.00 0.00 0.00 53 1013.0
20260506165414 29 64 11.3 12.9 0.00 0.00 0.00 53 1013.0
20260506164414 28 64 11.3 12.9 0.00 0.00 0.00 53 1013.0
20260506163414 28 64 11.3 12.9 0.00 0.00 0.00 53 1013.0
20260506162414 28 64 11.3 14.5 0.00 0.00 0.00 53 1014.0
20260506161413 31 55 8.0 16.1 0.00 0.00 0.00 57 1014.0
20260506160413 31 55 8.0 16.1 0.00 0.00 0.00 57 1014.0
20260506155412 30 55 8.0 16.1 0.00 0.00 0.00 57 1014.0
20260506154412 30 55 8.0 16.1 0.00 0.00 0.00 57 1014.0
20260506153412 29 55 8.0 16.1 0.00 0.00 0.00 57 1014.0
20260506152411 28 55 8.0 16.1 0.00 0.00 0.00 57 1014.0
20260506151411 28 55 8.0 16.1 0.00 0.00 0.00 57 1014.0
20260506150411 27 55 8.0 16.1 0.00 0.00 0.00 57 1014.0
20260506145411 27 55 8.0 16.1 0.00 0.00 0.00 57 1014.0
20260506144410 26 55 8.0 16.1 0.00 0.00 0.00 57 1014.0